TimeCST,TemperatureF,Dew PointF,Humidity,Sea Level PressureIn,VisibilityMPH,Wind Direction,Wind SpeedMPH,Gust SpeedMPH,PrecipitationIn,Events,Conditions,WindDirDegrees,DateUTC
12:53 AM,36.0,34.0,93,30.16,9.0,Calm,Calm,-,N/A,,Clear,0,2013-12-20 06:53:00
1:53 AM,34.0,32.0,92,30.16,8.0,Calm,Calm,-,N/A,,Clear,0,2013-12-20 07:53:00
2:53 AM,34.0,32.0,92,30.15,9.0,Calm,Calm,-,N/A,,Clear,0,2013-12-20 08:53:00
3:53 AM,36.0,34.0,93,30.15,10.0,Calm,Calm,-,N/A,,Clear,0,2013-12-20 09:53:00
4:53 AM,36.0,34.0,93,30.16,10.0,Calm,Calm,-,N/A,,Clear,0,2013-12-20 10:53:00
5:53 AM,37.0,35.1,93,30.17,10.0,Calm,Calm,-,N/A,,Partly Cloudy,0,2013-12-20 11:53:00
6:53 AM,39.9,37.9,93,30.19,8.0,Calm,Calm,-,N/A,,Mostly Cloudy,0,2013-12-20 12:53:00
7:53 AM,45.0,42.1,90,30.19,9.0,Calm,Calm,-,N/A,,Overcast,0,2013-12-20 13:53:00
8:53 AM,55.0,48.0,77,30.19,10.0,Calm,Calm,-,N/A,,Partly Cloudy,0,2013-12-20 14:53:00
9:53 AM,57.9,48.0,70,30.20,10.0,Calm,Calm,-,N/A,,Overcast,0,2013-12-20 15:53:00
10:53 AM,64.0,52.0,65,30.18,10.0,South,3.5,-,N/A,,Scattered Clouds,170,2013-12-20 16:53:00
11:53 AM,66.9,55.0,66,30.14,10.0,South,5.8,-,N/A,,Mostly Cloudy,180,2013-12-20 17:53:00
12:53 PM,70.0,57.9,65,30.11,10.0,South,4.6,-,N/A,,Scattered Clouds,180,2013-12-20 18:53:00
1:53 PM,71.1,59.0,66,30.10,10.0,South,8.1,-,N/A,,Mostly Cloudy,190,2013-12-20 19:53:00
2:16 PM,71.6,59.0,64,30.10,10.0,South,4.6,-,N/A,,Mostly Cloudy,190,2013-12-20 20:16:00
2:36 PM,71.6,60.8,69,30.09,10.0,Calm,Calm,-,N/A,,Mostly Cloudy,0,2013-12-20 20:36:00
2:53 PM,73.0,60.1,64,30.10,10.0,South,3.5,-,N/A,,Mostly Cloudy,180,2013-12-20 20:53:00
3:53 PM,72.0,60.1,66,30.10,10.0,South,3.5,-,N/A,,Partly Cloudy,170,2013-12-20 21:53:00
4:53 PM,66.9,61.0,81,30.09,10.0,Calm,Calm,-,N/A,,Clear,0,2013-12-20 22:53:00
5:53 PM,62.1,59.0,90,30.10,9.0,Calm,Calm,-,N/A,,Clear,0,2013-12-20 23:53:00
6:53 PM,61.0,59.0,93,30.11,5.0,Calm,Calm,-,N/A,,Clear,0,2013-12-21 00:53:00
7:45 PM,59.0,57.2,94,30.10,2.0,Calm,Calm,-,N/A,,Clear,0,2013-12-21 01:45:00
7:53 PM,59.0,57.9,96,30.11,3.0,Calm,Calm,-,N/A,,Clear,0,2013-12-21 01:53:00
8:08 PM,57.2,57.2,100,30.11,4.0,Calm,Calm,-,N/A,,Clear,0,2013-12-21 02:08:00
8:34 PM,57.2,57.2,100,30.10,1.8,Calm,Calm,-,N/A,,Clear,0,2013-12-21 02:34:00
8:48 PM,55.4,55.4,100,30.11,3.0,Calm,Calm,-,N/A,,Partly Cloudy,0,2013-12-21 02:48:00
8:53 PM,57.0,55.0,93,30.11,4.0,Calm,Calm,-,N/A,,Scattered Clouds,0,2013-12-21 02:53:00
9:07 PM,57.2,55.4,94,30.11,1.0,Calm,Calm,-,N/A,,Mostly Cloudy,0,2013-12-21 03:07:00
9:14 PM,59.0,57.2,94,30.11,2.0,Calm,Calm,-,N/A,,Scattered Clouds,0,2013-12-21 03:14:00
9:25 PM,59.0,57.2,94,30.11,1.8,Calm,Calm,-,N/A,,Scattered Clouds,0,2013-12-21 03:25:00
9:31 PM,57.2,57.2,100,30.11,3.0,Calm,Calm,-,N/A,,Partly Cloudy,0,2013-12-21 03:31:00
9:39 PM,55.4,55.4,100,30.11,1.8,Calm,Calm,-,N/A,,Clear,0,2013-12-21 03:39:00
9:47 PM,55.4,55.4,100,30.11,0.8,Calm,Calm,-,N/A,,Mist,0,2013-12-21 03:47:00
9:53 PM,55.9,55.0,97,30.11,0.8,Calm,Calm,-,N/A,,Mist,0,2013-12-21 03:53:00
10:01 PM,55.4,53.6,94,30.11,1.2,Calm,Calm,-,N/A,,Scattered Clouds,0,2013-12-21 04:01:00
10:04 PM,55.4,53.6,94,30.11,3.0,Calm,Calm,-,N/A,,Partly Cloudy,0,2013-12-21 04:04:00
10:53 PM,54.0,53.1,97,30.09,3.0,Calm,Calm,-,N/A,,Mostly Cloudy,0,2013-12-21 04:53:00
11:53 PM,60.1,57.9,93,30.07,6.0,Calm,Calm,-,N/A,,Mostly Cloudy,0,2013-12-21 05:53:00